Location: The Saddle
(36.8333°N, 80.3417°W)
Time: 17:51:39
(UTC-05:00)

X-37B - Pass Details

Date: 26 November 2022
Orbit: 277 x 277 km, 45.0° (Epoch: 01 November)

Event Time Altitude Azimuth Distance (km) Brightness Sun altitude
Exits shadow 05:26:42 21° 146° (SE) 689 2.3 -20.5°
Drops below altitude 10° 05:27:44 10° 136° (SE) 1,092 3.6 -20.3°
Sets 05:29:40 0° 131° (SE) 1,901 5.1 -19.9°
